TimeEST,TemperatureF,Dew PointF,Humidity,Sea Level PressureIn,VisibilityMPH,Wind Direction,Wind SpeedMPH,Gust SpeedMPH,PrecipitationIn,Events,Conditions,WindDirDegrees,DateUTC
12:53 AM,45.0,42.1,90,30.13,5.0,Calm,Calm,-,N/A,,Clear,0,2014-02-19 05:53:00
1:53 AM,45.0,42.1,90,30.11,4.0,ENE,3.5,-,N/A,,Clear,70,2014-02-19 06:53:00
2:53 AM,46.0,42.1,86,30.09,5.0,Calm,Calm,-,N/A,,Clear,0,2014-02-19 07:53:00
3:53 AM,46.9,44.1,90,30.08,6.0,Calm,Calm,-,N/A,,Partly Cloudy,0,2014-02-19 08:53:00
4:53 AM,51.1,46.9,86,30.06,5.0,SSE,4.6,-,N/A,,Mostly Cloudy,160,2014-02-19 09:53:00
5:53 AM,57.0,55.0,93,30.05,4.0,South,9.2,-,N/A,,Overcast,190,2014-02-19 10:53:00
6:09 AM,57.9,55.9,93,30.05,4.0,SSW,10.4,-,N/A,,Overcast,210,2014-02-19 11:09:00
6:53 AM,59.0,55.9,90,30.06,7.0,SW,10.4,-,N/A,,Overcast,220,2014-02-19 11:53:00
7:53 AM,61.0,55.0,81,30.07,10.0,SW,15.0,-,N/A,,Overcast,230,2014-02-19 12:53:00
8:53 AM,64.9,55.0,70,30.06,10.0,SW,15.0,-,N/A,,Mostly Cloudy,220,2014-02-19 13:53:00
9:53 AM,70.0,55.9,61,30.06,10.0,SW,17.3,23.0,N/A,,Clear,230,2014-02-19 14:53:00
10:53 AM,72.0,55.0,55,30.04,10.0,SW,19.6,26.5,N/A,,Clear,230,2014-02-19 15:53:00
11:53 AM,75.9,55.0,48,30.01,10.0,WSW,17.3,26.5,N/A,,Partly Cloudy,240,2014-02-19 16:53:00
12:53 PM,75.0,55.0,50,29.98,10.0,SSW,17.3,25.3,N/A,,Partly Cloudy,210,2014-02-19 17:53:00
1:53 PM,75.9,53.1,45,29.96,10.0,SSW,18.4,26.5,N/A,,Clear,200,2014-02-19 18:53:00
2:53 PM,75.9,50.0,40,29.95,10.0,SSW,18.4,-,N/A,,Clear,210,2014-02-19 19:53:00
3:53 PM,72.0,48.9,44,29.96,10.0,South,10.4,-,N/A,,Clear,190,2014-02-19 20:53:00
4:53 PM,70.0,48.0,46,29.98,10.0,SSW,13.8,21.9,N/A,,Clear,200,2014-02-19 21:53:00
5:53 PM,64.9,46.0,50,30.00,10.0,SSW,12.7,-,N/A,,Clear,210,2014-02-19 22:53:00
6:53 PM,63.0,44.1,50,30.02,10.0,SSW,12.7,-,N/A,,Clear,210,2014-02-19 23:53:00
7:53 PM,63.0,42.1,46,30.04,10.0,SW,10.4,-,N/A,,Clear,220,2014-02-20 00:53:00
8:53 PM,63.0,42.1,46,30.06,10.0,SSW,9.2,-,N/A,,Clear,210,2014-02-20 01:53:00
9:53 PM,62.1,43.0,50,30.08,10.0,SW,6.9,-,N/A,,Clear,230,2014-02-20 02:53:00
10:53 PM,60.1,44.1,55,30.10,10.0,SW,5.8,-,N/A,,Clear,220,2014-02-20 03:53:00
11:53 PM,60.1,45.0,57,30.11,10.0,SW,3.5,-,N/A,,Clear,230,2014-02-20 04:53:00